CPA489 RCTP-VHHH

Flight info

Callsign CPA489
Flight time N/A
Altitude 40000
Route CHALI1A CHALI T3 MKG A1 ELATO V522 ABBEY
Aircraft A359/H-SDE2E3GHIJ3J4J5LM1ORWXY/LB1D1

Departure

Time 2026-05-05 03:53
Airport Taiwan Taoyuan International Airport (RCTP)

Arrival

Time N/A
Airport Hong Kong International Airport (VHHH)
Time Latitude Longitude Altitude Speed Heading
2026-05-05 03:28 25.07981 121.23907 107 ft 0 kts 320°
2026-05-05 03:41 25.07963 121.23923 105 ft 4 kts 319°
2026-05-05 03:42 25.07943 121.23943 107 ft 4 kts 319°
2026-05-05 03:42 25.07922 121.23962 107 ft 4 kts 319°
2026-05-05 03:42 25.07902 121.23982 107 ft 4 kts 319°
2026-05-05 03:42 25.07885 121.23999 105 ft 4 kts 282°
2026-05-05 03:43 25.07892 121.24017 107 ft 4 kts 217°
2026-05-05 03:43 25.07911 121.24033 107 ft 0 kts 229°
2026-05-05 03:44 25.07899 121.24018 105 ft 6 kts 229°
2026-05-05 03:45 25.07861 121.23969 105 ft 10 kts 229°
2026-05-05 03:45 25.07818 121.23915 106 ft 9 kts 230°
2026-05-05 03:45 25.07783 121.23868 107 ft 8 kts 230°
2026-05-05 03:45 25.07734 121.23806 105 ft 13 kts 229°
2026-05-05 03:46 25.07673 121.23728 105 ft 14 kts 229°
2026-05-05 03:46 25.07607 121.23644 106 ft 15 kts 229°
2026-05-05 03:46 25.07549 121.23570 107 ft 11 kts 229°
2026-05-05 03:46 25.07491 121.23494 104 ft 15 kts 230°
2026-05-05 03:47 25.07418 121.23400 107 ft 18 kts 229°
2026-05-05 03:47 25.07353 121.23318 105 ft 14 kts 229°
2026-05-05 03:47 25.07290 121.23236 105 ft 11 kts 229°
2026-05-05 03:47 25.07246 121.23183 107 ft 7 kts 221°
2026-05-05 03:48 25.07199 121.23191 106 ft 9 kts 147°
2026-05-05 03:48 25.07143 121.23240 107 ft 12 kts 141°
2026-05-05 03:48 25.07083 121.23282 106 ft 8 kts 174°
2026-05-05 03:48 25.07035 121.23241 105 ft 11 kts 230°
2026-05-05 03:49 25.06978 121.23169 104 ft 14 kts 229°
2026-05-05 03:49 25.06906 121.23077 106 ft 17 kts 229°
2026-05-05 03:49 25.06820 121.22969 106 ft 21 kts 229°
2026-05-05 03:49 25.06740 121.22867 105 ft 14 kts 229°
2026-05-05 03:50 25.06667 121.22774 105 ft 18 kts 229°
2026-05-05 03:50 25.06580 121.22664 103 ft 20 kts 229°
2026-05-05 03:50 25.06515 121.22582 104 ft 10 kts 229°
2026-05-05 03:50 25.06462 121.22514 104 ft 13 kts 229°
2026-05-05 03:51 25.06398 121.22432 105 ft 10 kts 229°
2026-05-05 03:51 25.06343 121.22414 105 ft 5 kts 162°
2026-05-05 03:51 25.06311 121.22445 104 ft 9 kts 137°
2026-05-05 03:51 25.06252 121.22504 105 ft 13 kts 137°
2026-05-05 03:52 25.06239 121.22551 101 ft 6 kts 69°
2026-05-05 03:52 25.06278 121.22601 104 ft 18 kts 49°
2026-05-05 03:52 25.06535 121.22927 102 ft 95 kts 49°
2026-05-05 03:52 25.07121 121.23672 106 ft 159 kts 50°
2026-05-05 03:53 25.07839 121.24595 895 ft 155 kts 51°
2026-05-05 03:53 25.08532 121.25489 1783 ft 157 kts 52°
2026-05-05 03:53 25.09256 121.26429 2509 ft 173 kts 52°
2026-05-05 03:53 25.10119 121.27522 2907 ft 206 kts 47°
2026-05-05 03:54 25.11417 121.28329 3444 ft 224 kts
2026-05-05 03:54 25.12966 121.28087 3939 ft 236 kts 330°
2026-05-05 03:54 25.14341 121.26967 4315 ft 254 kts 315°
2026-05-05 03:54 25.15670 121.25629 5077 ft 260 kts 314°
2026-05-05 03:55 25.17028 121.24283 5900 ft 265 kts 314°
2026-05-05 03:55 25.18436 121.22919 6714 ft 272 kts 314°
2026-05-05 03:55 25.19877 121.21547 7616 ft 275 kts 315°
2026-05-05 03:55 25.21341 121.20167 8629 ft 277 kts 315°
2026-05-05 03:56 25.22800 121.18800 9642 ft 278 kts 314°
2026-05-05 03:56 25.24285 121.17408 10460 ft 285 kts 314°
2026-05-05 03:56 25.25812 121.15891 10874 ft 305 kts 309°
2026-05-05 03:56 25.27103 121.13951 11255 ft 322 kts 296°
2026-05-05 03:57 25.28084 121.11655 11698 ft 334 kts 285°
2026-05-05 03:57 25.28443 121.09115 12403 ft 336 kts 266°
2026-05-05 03:57 25.27919 121.06611 13154 ft 337 kts 244°
2026-05-05 03:57 25.26510 121.04542 13923 ft 342 kts 223°
2026-05-05 03:58 25.24576 121.02973 14595 ft 348 kts 216°
2026-05-05 03:58 25.22582 121.01493 15253 ft 351 kts 217°
2026-05-05 03:58 25.20568 120.99954 15927 ft 354 kts 218°
2026-05-05 03:58 25.18551 120.98365 16641 ft 357 kts 219°
2026-05-05 03:59 25.16530 120.96745 17342 ft 360 kts 219°
2026-05-05 03:59 25.14503 120.95101 18095 ft 362 kts 220°
2026-05-05 03:59 25.12571 120.93321 18785 ft 360 kts 225°
2026-05-05 03:59 25.10752 120.91403 19364 ft 363 kts 227°
2026-05-05 04:00 25.08942 120.89448 19950 ft 366 kts 227°
2026-05-05 04:00 25.07125 120.87482 20643 ft 366 kts 227°
2026-05-05 04:00 25.05296 120.85506 21369 ft 367 kts 227°
2026-05-05 04:00 25.03463 120.83531 22081 ft 369 kts 227°
2026-05-05 04:01 25.01627 120.81555 22706 ft 371 kts 227°
2026-05-05 04:01 24.99797 120.79584 23295 ft 373 kts 227°
2026-05-05 04:01 24.97932 120.77576 23873 ft 375 kts 227°
2026-05-05 04:01 24.96054 120.75556 24359 ft 378 kts 227°
2026-05-05 04:02 24.94160 120.73519 24839 ft 382 kts 227°
2026-05-05 04:02 24.92247 120.71463 25343 ft 386 kts 227°
2026-05-05 04:02 24.90313 120.69389 25862 ft 389 kts 227°
2026-05-05 04:02 24.88367 120.67299 26381 ft 392 kts 228°
2026-05-05 04:03 24.86406 120.65194 26895 ft 396 kts 228°
2026-05-05 04:03 24.84427 120.63076 27409 ft 399 kts 228°
2026-05-05 04:03 24.82456 120.60963 27881 ft 402 kts 228°
2026-05-05 04:03 24.80440 120.58802 28410 ft 406 kts 229°
2026-05-05 04:04 24.78411 120.56628 28905 ft 409 kts 229°
2026-05-05 04:04 24.76367 120.54438 29352 ft 412 kts 229°
2026-05-05 04:04 24.74299 120.52233 29848 ft 416 kts 228°
2026-05-05 04:04 24.72070 120.50157 30295 ft 424 kts 223°
2026-05-05 04:05 24.69682 120.48229 30701 ft 427 kts 221°
2026-05-05 04:05 24.67230 120.46347 31025 ft 432 kts 220°
2026-05-05 04:05 24.64740 120.44480 31381 ft 435 kts 220°
2026-05-05 04:05 24.62224 120.42605 31771 ft 437 kts 220°
2026-05-05 04:06 24.59704 120.40726 32151 ft 439 kts 220°
2026-05-05 04:06 24.57178 120.38835 32530 ft 441 kts 220°
2026-05-05 04:06 24.54637 120.36925 32880 ft 443 kts 220°
2026-05-05 04:06 24.52091 120.35005 33201 ft 445 kts 220°
2026-05-05 04:07 24.49544 120.33082 33630 ft 444 kts 220°
2026-05-05 04:07 24.46999 120.31162 34135 ft 441 kts 220°
2026-05-05 04:07 24.44507 120.29283 34485 ft 440 kts 220°
2026-05-05 04:07 24.41994 120.27360 34724 ft 442 kts 221°
2026-05-05 04:08 24.39451 120.25380 35002 ft 443 kts 221°
2026-05-05 04:08 24.36972 120.23438 35300 ft 443 kts 221°
2026-05-05 04:08 24.34464 120.21473 35642 ft 443 kts 221°
2026-05-05 04:08 24.31955 120.19516 35952 ft 443 kts 221°
2026-05-05 04:09 24.29443 120.17562 36244 ft 443 kts 221°
2026-05-05 04:09 24.26924 120.15607 36549 ft 444 kts 221°
2026-05-05 04:09 24.24408 120.13655 36862 ft 444 kts 221°
2026-05-05 04:09 24.21888 120.11701 37165 ft 444 kts 221°
2026-05-05 04:10 24.19365 120.09746 37387 ft 445 kts 221°
2026-05-05 04:10 24.16830 120.07783 37640 ft 446 kts 221°
2026-05-05 04:10 24.14294 120.05825 37921 ft 446 kts 220°
2026-05-05 04:10 24.11756 120.03868 38205 ft 446 kts 221°
2026-05-05 04:11 24.09221 120.01912 38493 ft 446 kts 221°
2026-05-05 04:11 24.06685 119.99952 38747 ft 447 kts 221°
2026-05-05 04:11 24.04149 119.97991 38975 ft 446 kts 221°
2026-05-05 04:11 24.01610 119.96032 39208 ft 446 kts 221°
2026-05-05 04:12 23.99076 119.94077 39439 ft 446 kts 221°
2026-05-05 04:12 23.96539 119.92121 39587 ft 447 kts 221°
2026-05-05 04:12 23.91459 119.88209 39863 ft 450 kts 220°
2026-05-05 04:13 23.88898 119.86239 40010 ft 450 kts 220°
2026-05-05 04:13 23.86342 119.84276 40030 ft 449 kts 220°
2026-05-05 04:13 23.81241 119.80360 40033 ft 448 kts 220°
2026-05-05 04:14 23.76147 119.76451 40037 ft 447 kts 220°
2026-05-05 04:14 23.71052 119.72543 40044 ft 449 kts 220°
2026-05-05 04:15 23.65931 119.68618 40046 ft 450 kts 220°
2026-05-05 04:15 23.60958 119.64507 40051 ft 445 kts 228°
2026-05-05 04:16 23.57039 119.59394 40036 ft 437 kts 239°
2026-05-05 04:16 23.53729 119.53840 40057 ft 437 kts 241°
2026-05-05 04:17 23.50520 119.48229 40034 ft 437 kts 242°
2026-05-05 04:17 23.47312 119.42638 40042 ft 438 kts 241°
2026-05-05 04:18 23.44058 119.37018 40040 ft 439 kts 241°
2026-05-05 04:18 23.40782 119.31387 40033 ft 439 kts 241°
2026-05-05 04:19 23.37513 119.25780 40027 ft 439 kts 241°
2026-05-05 04:19 23.34239 119.20165 40034 ft 438 kts 241°
2026-05-05 04:20 23.30992 119.14600 40033 ft 438 kts 241°
2026-05-05 04:20 23.27721 119.09001 40032 ft 440 kts 241°
2026-05-05 04:21 23.24435 119.03381 40035 ft 440 kts 241°
2026-05-05 04:21 23.21142 118.97757 40032 ft 440 kts 241°
2026-05-05 04:22 23.17851 118.92144 40032 ft 440 kts 241°
2026-05-05 04:22 23.14560 118.86535 40036 ft 440 kts 241°
2026-05-05 04:23 23.11269 118.80934 40031 ft 440 kts 241°
2026-05-05 04:23 23.07976 118.75333 40036 ft 441 kts 241°
2026-05-05 04:24 23.04663 118.69705 40031 ft 442 kts 241°
2026-05-05 04:25 22.99697 118.61284 40037 ft 442 kts 241°
2026-05-05 04:25 22.96368 118.55644 40032 ft 442 kts 241°
2026-05-05 04:26 22.93034 118.50023 40031 ft 442 kts 240°
2026-05-05 04:26 22.90263 118.45364 40031 ft 442 kts 240°
2026-05-05 04:27 22.86920 118.39751 40024 ft 443 kts 240°
2026-05-05 04:27 22.83024 118.33216 40030 ft 445 kts 240°
2026-05-05 04:28 22.80224 118.28523 40032 ft 445 kts 240°
2026-05-05 04:28 22.76855 118.22885 40028 ft 445 kts 240°
2026-05-05 04:29 22.73489 118.17255 40028 ft 445 kts 240°
2026-05-05 04:29 22.70121 118.11630 40024 ft 445 kts 240°
2026-05-05 04:30 22.66751 118.06007 40026 ft 445 kts 240°
2026-05-05 04:30 22.63383 118.00392 40027 ft 444 kts 240°
2026-05-05 04:31 22.60030 117.94810 40027 ft 444 kts 240°
2026-05-05 04:31 22.56675 117.89189 40028 ft 444 kts 241°
2026-05-05 04:32 22.53342 117.83560 40025 ft 444 kts 241°
2026-05-05 04:32 22.50004 117.77937 40027 ft 444 kts 241°
2026-05-05 04:33 22.46663 117.72324 40023 ft 444 kts 240°
2026-05-05 04:33 22.43313 117.66707 40033 ft 446 kts 240°
2026-05-05 04:34 22.39948 117.61069 40033 ft 447 kts 240°
2026-05-05 04:34 22.36585 117.55414 40015 ft 446 kts 242°
2026-05-05 04:35 22.34071 117.49346 40012 ft 441 kts 256°
2026-05-05 04:35 22.33180 117.42833 40029 ft 439 kts 268°
2026-05-05 04:36 22.33010 117.36289 40024 ft 439 kts 269°
2026-05-05 04:36 22.32940 117.29688 40035 ft 439 kts 269°
2026-05-05 04:37 22.32850 117.23096 40023 ft 439 kts 269°
2026-05-05 04:37 22.32732 117.16503 40030 ft 439 kts 269°
2026-05-05 04:38 22.32613 117.10384 40034 ft 438 kts 269°
2026-05-05 04:38 22.32481 117.03808 40022 ft 438 kts 269°
2026-05-05 04:39 22.32348 116.97235 40026 ft 438 kts 269°
2026-05-05 04:39 22.32213 116.90663 40027 ft 438 kts 269°
2026-05-05 04:40 22.32076 116.84091 40023 ft 438 kts 269°
2026-05-05 04:40 22.31936 116.77519 40026 ft 439 kts 269°
2026-05-05 04:41 22.31793 116.70955 40025 ft 441 kts 269°
2026-05-05 04:41 22.31647 116.64336 40024 ft 441 kts 269°
2026-05-05 04:41 22.31572 116.61019 39878 ft 441 kts 269°
2026-05-05 04:42 22.31497 116.57711 39641 ft 441 kts 269°
2026-05-05 04:42 22.31422 116.54404 39406 ft 441 kts 269°
2026-05-05 04:42 22.31345 116.51096 39179 ft 441 kts 269°
2026-05-05 04:42 22.31268 116.47784 38952 ft 441 kts 269°
2026-05-05 04:43 22.31191 116.44474 38730 ft 441 kts 269°
2026-05-05 04:43 22.31112 116.41168 38463 ft 440 kts 269°
2026-05-05 04:43 22.31034 116.37856 38199 ft 441 kts 269°
2026-05-05 04:43 22.30955 116.34547 37928 ft 441 kts 269°
2026-05-05 04:44 22.30874 116.31233 37665 ft 442 kts 269°
2026-05-05 04:44 22.30793 116.27921 37407 ft 442 kts 269°
2026-05-05 04:44 22.30711 116.24600 37155 ft 442 kts 269°
2026-05-05 04:44 22.30628 116.21280 36896 ft 442 kts 269°
2026-05-05 04:45 22.30545 116.17965 36644 ft 442 kts 269°
2026-05-05 04:45 22.30463 116.14691 36418 ft 442 kts 268°
2026-05-05 04:45 22.30379 116.11371 36173 ft 443 kts 268°
2026-05-05 04:45 22.30293 116.08046 35923 ft 443 kts 268°
2026-05-05 04:46 22.30207 116.04720 35687 ft 443 kts 268°
2026-05-05 04:46 22.30120 116.01397 35449 ft 443 kts 268°
2026-05-05 04:46 22.30033 115.98090 34851 ft 440 kts 268°
2026-05-05 04:46 22.29944 115.94770 34035 ft 442 kts 268°
2026-05-05 04:47 22.29854 115.91442 33109 ft 444 kts 268°
2026-05-05 04:47 22.29765 115.88132 32544 ft 438 kts 268°
2026-05-05 04:47 22.29677 115.84863 31968 ft 433 kts 268°
2026-05-05 04:47 22.29590 115.81629 31389 ft 429 kts 268°
2026-05-05 04:48 22.29505 115.78429 30828 ft 425 kts 267°
2026-05-05 04:48 22.29421 115.75251 30251 ft 421 kts 267°
2026-05-05 04:48 22.29338 115.72091 29586 ft 418 kts 267°
2026-05-05 04:48 22.29256 115.68961 28924 ft 415 kts 267°
2026-05-05 04:49 22.29170 115.65856 28281 ft 412 kts 267°
2026-05-05 04:49 22.29086 115.62773 27643 ft 409 kts 267°
2026-05-05 04:49 22.29004 115.59749 27022 ft 406 kts 268°
2026-05-05 04:49 22.28924 115.56709 26426 ft 403 kts 268°
2026-05-05 04:50 22.28841 115.53684 25837 ft 400 kts 268°
2026-05-05 04:50 22.28758 115.50701 25253 ft 397 kts 268°
2026-05-05 04:50 22.28674 115.47730 24679 ft 394 kts 268°
2026-05-05 04:50 22.28590 115.44787 24116 ft 391 kts 268°
2026-05-05 04:51 22.28506 115.41859 23548 ft 388 kts 268°
2026-05-05 04:51 22.28423 115.38963 22901 ft 385 kts 268°
2026-05-05 04:51 22.28339 115.36086 22253 ft 382 kts 268°
2026-05-05 04:51 22.28256 115.33232 21626 ft 379 kts 268°
2026-05-05 04:52 22.28174 115.30396 20983 ft 377 kts 268°
2026-05-05 04:52 22.28087 115.27575 20383 ft 375 kts 268°
2026-05-05 04:52 22.28000 115.24768 19793 ft 373 kts 267°
2026-05-05 04:52 22.27913 115.21975 19205 ft 371 kts 267°
2026-05-05 04:53 22.27828 115.19199 18635 ft 369 kts 267°
2026-05-05 04:53 22.27741 115.16436 18038 ft 367 kts 267°
2026-05-05 04:53 22.27655 115.13687 17377 ft 365 kts 267°
2026-05-05 04:53 22.27569 115.10953 16745 ft 363 kts 267°
2026-05-05 04:54 22.27483 115.08234 16135 ft 362 kts 267°
2026-05-05 04:54 22.27397 115.05560 15530 ft 360 kts 267°
2026-05-05 04:54 22.27311 115.02866 14930 ft 358 kts 266°
2026-05-05 04:54 22.27225 115.00182 14364 ft 355 kts 266°
2026-05-05 04:55 22.27140 114.97524 13781 ft 353 kts 266°
2026-05-05 04:55 22.27054 114.94891 13136 ft 350 kts 266°
2026-05-05 04:55 22.26970 114.92282 12501 ft 347 kts 266°
2026-05-05 04:55 22.26884 114.89685 11875 ft 344 kts 266°
2026-05-05 04:56 22.26800 114.87114 11264 ft 341 kts 266°
2026-05-05 04:56 22.26716 114.84584 10894 ft 331 kts 266°
2026-05-05 04:56 22.26637 114.82148 10696 ft 318 kts 266°
2026-05-05 04:56 22.26444 114.79793 10519 ft 313 kts 258°
2026-05-05 04:57 22.25690 114.77621 10325 ft 308 kts 239°
2026-05-05 04:57 22.24362 114.75861 10100 ft 302 kts 226°
2026-05-05 04:57 22.22881 114.74332 10016 ft 286 kts 224°
2026-05-05 04:57 22.21471 114.72908 10008 ft 271 kts 225°
2026-05-05 04:58 22.20101 114.71520 9964 ft 270 kts 225°
2026-05-05 04:58 22.18735 114.70127 9779 ft 274 kts 225°
2026-05-05 04:58 22.17365 114.68724 9618 ft 267 kts 225°
2026-05-05 04:58 22.16033 114.67358 9414 ft 262 kts 225°
2026-05-05 04:59 22.14714 114.66002 9272 ft 262 kts 225°
2026-05-05 04:59 22.13397 114.64648 9156 ft 261 kts 225°
2026-05-05 04:59 22.12081 114.63300 9015 ft 260 kts 225°
2026-05-05 04:59 22.10774 114.61958 8900 ft 260 kts 225°
2026-05-05 05:00 22.09456 114.60609 8786 ft 263 kts 224°
2026-05-05 05:00 22.08140 114.59265 8653 ft 258 kts 225°
2026-05-05 05:00 22.06861 114.57953 8536 ft 257 kts 225°
2026-05-05 05:00 22.05572 114.56629 8405 ft 257 kts 225°
2026-05-05 05:01 22.04278 114.55302 8270 ft 256 kts 225°
2026-05-05 05:01 22.02994 114.53963 8145 ft 255 kts 227°
2026-05-05 05:01 22.01972 114.52411 8052 ft 255 kts 243°
2026-05-05 05:01 22.01249 114.50671 7945 ft 254 kts 247°
2026-05-05 05:02 22.00584 114.48908 7854 ft 253 kts 247°
2026-05-05 05:02 21.99924 114.47150 7769 ft 253 kts 247°
2026-05-05 05:02 21.99262 114.45400 7660 ft 252 kts 247°
2026-05-05 05:02 21.98601 114.43663 7556 ft 254 kts 247°
2026-05-05 05:03 21.97931 114.41906 7469 ft 253 kts 246°
2026-05-05 05:03 21.97261 114.40153 7382 ft 253 kts 246°
2026-05-05 05:03 21.96587 114.38393 7285 ft 255 kts 246°
2026-05-05 05:03 21.95910 114.36627 7194 ft 255 kts 246°
2026-05-05 05:04 21.95233 114.34864 7108 ft 254 kts 246°
2026-05-05 05:04 21.94559 114.33104 7003 ft 254 kts 246°
2026-05-05 05:04 21.93884 114.31346 6909 ft 253 kts 246°
2026-05-05 05:04 21.93216 114.29606 6810 ft 251 kts 246°
2026-05-05 05:05 21.92548 114.27865 6729 ft 251 kts 246°
2026-05-05 05:05 21.91879 114.26128 6623 ft 253 kts 246°
2026-05-05 05:05 21.91205 114.24381 6534 ft 252 kts 246°
2026-05-05 05:05 21.90538 114.22636 6443 ft 252 kts 246°
2026-05-05 05:06 21.89908 114.20877 6325 ft 253 kts 252°
2026-05-05 05:06 21.89717 114.18991 6239 ft 256 kts 274°
2026-05-05 05:06 21.90246 114.17177 6153 ft 260 kts 292°
2026-05-05 05:06 21.91103 114.15465 6056 ft 260 kts 296°
2026-05-05 05:07 21.92004 114.13770 5950 ft 262 kts 296°
2026-05-05 05:07 21.92909 114.12071 5859 ft 262 kts 296°
2026-05-05 05:07 21.93806 114.10364 5756 ft 260 kts 295°
2026-05-05 05:07 21.94683 114.08673 5657 ft 259 kts 295°
2026-05-05 05:08 21.95564 114.06974 5547 ft 259 kts 295°
2026-05-05 05:08 21.96437 114.05286 5448 ft 253 kts 296°
2026-05-05 05:08 21.97276 114.03669 5337 ft 241 kts 296°
2026-05-05 05:08 21.98070 114.02137 5227 ft 230 kts 296°
2026-05-05 05:09 21.98844 114.00636 5114 ft 229 kts 296°
2026-05-05 05:09 21.99617 113.99135 4997 ft 229 kts 295°